Location: Newark
(42.8481°N, 0.4872°E)
Time: 23:40:53
(UTC+00:00)

Transit 2A Rocket - Pass Details

Date: 04 November 2020
Orbit: 588 x 914 km, 66.7° (Epoch: 29 November)

Event Time Altitude Azimuth Distance (km) Brightness Sun altitude
Rises 09:12:39 0° 246° (WSW) 3,539 8.3 22.3°
Reaches altitude 10° 09:15:36 10° 258° (WSW) 2,588 7.6 22.7°
Maximum altitude 09:20:39 27° 315° (NW) 1,634 6.4 23.2°
Drops below altitude 10° 09:25:33 10° 12° (NNE) 2,488 7.3 23.8°
Sets 09:28:20 0° 24° (NNE) 3,376 8.1 24.1°
